TimeEDT,TemperatureF,Dew PointF,Humidity,Sea Level PressureIn,VisibilityMPH,Wind Direction,Wind SpeedMPH,Gust SpeedMPH,PrecipitationIn,Events,Conditions,WindDirDegrees,DateUTC
12:53 AM,64.9,64.9,100,29.98,1.0,North,4.6,-,N/A,,Overcast,10,2012-10-03 04:53:00
1:53 AM,64.9,64.9,100,29.99,1.0,North,5.8,-,0.01,,Overcast,10,2012-10-03 05:53:00
2:53 AM,64.9,64.9,100,29.98,1.2,NNE,3.5,-,N/A,,Overcast,20,2012-10-03 06:53:00
3:31 AM,64.4,64.4,100,29.98,2.0,NNE,6.9,-,N/A,,Overcast,30,2012-10-03 07:31:00
3:43 AM,64.4,64.4,100,29.98,1.5,NE,6.9,-,N/A,,Overcast,40,2012-10-03 07:43:00
3:53 AM,64.0,64.0,100,29.99,1.5,NNE,5.8,-,N/A,,Overcast,20,2012-10-03 07:53:00
4:22 AM,64.4,64.4,100,29.99,0.8,NNE,5.8,-,N/A,,Mist,30,2012-10-03 08:22:00
4:53 AM,64.0,64.0,100,30.00,1.0,NNE,5.8,-,N/A,,Mist,30,2012-10-03 08:53:00
5:53 AM,64.0,64.0,100,30.01,2.5,NE,5.8,-,N/A,,Overcast,40,2012-10-03 09:53:00
6:13 AM,64.4,64.4,100,30.01,3.0,NNE,3.5,-,N/A,,Overcast,20,2012-10-03 10:13:00
6:23 AM,64.4,64.4,100,30.01,2.5,NE,4.6,-,N/A,,Overcast,40,2012-10-03 10:23:00
6:48 AM,64.4,64.4,100,30.03,3.0,NE,3.5,-,N/A,,Overcast,50,2012-10-03 10:48:00
6:53 AM,64.0,64.0,100,30.03,4.0,Calm,Calm,-,N/A,,Overcast,0,2012-10-03 10:53:00
7:24 AM,64.4,64.4,100,30.04,1.0,North,5.8,-,N/A,,Overcast,10,2012-10-03 11:24:00
7:34 AM,64.4,64.4,100,30.04,0.5,North,6.9,-,N/A,,Overcast,10,2012-10-03 11:34:00
7:53 AM,64.0,64.0,100,30.06,1.2,North,4.6,-,N/A,,Overcast,10,2012-10-03 11:53:00
8:53 AM,64.0,64.0,100,30.06,1.2,NE,5.8,-,N/A,,Overcast,50,2012-10-03 12:53:00
9:41 AM,66.2,66.2,100,30.06,2.5,ENE,3.5,-,N/A,,Overcast,70,2012-10-03 13:41:00
9:53 AM,66.0,66.0,100,30.06,3.0,ENE,3.5,-,N/A,,Overcast,70,2012-10-03 13:53:00
10:38 AM,69.8,66.2,88,30.07,10.0,Calm,Calm,-,N/A,,Overcast,0,2012-10-03 14:38:00
10:48 AM,69.8,66.2,88,30.07,10.0,NE,3.5,-,N/A,,Overcast,50,2012-10-03 14:48:00
10:53 AM,70.0,66.9,90,30.07,10.0,NE,3.5,-,N/A,,Overcast,50,2012-10-03 14:53:00
11:12 AM,69.8,68.0,94,30.08,10.0,North,3.5,-,N/A,,Overcast,10,2012-10-03 15:12:00
11:53 AM,71.1,68.0,90,30.07,10.0,Calm,Calm,-,N/A,,Overcast,0,2012-10-03 15:53:00
12:42 PM,73.4,69.8,88,30.06,9.0,Calm,Calm,-,N/A,,Mostly Cloudy,0,2012-10-03 16:42:00
12:53 PM,73.0,69.1,87,30.06,10.0,SE,4.6,-,N/A,,Mostly Cloudy,130,2012-10-03 16:53:00
1:23 PM,75.2,71.6,89,30.05,10.0,South,4.6,-,N/A,,Mostly Cloudy,180,2012-10-03 17:23:00
1:34 PM,75.2,69.8,83,30.05,10.0,South,8.1,-,N/A,,Overcast,170,2012-10-03 17:34:00
1:53 PM,73.9,70.0,87,30.05,10.0,South,6.9,-,N/A,,Overcast,170,2012-10-03 17:53:00
2:10 PM,73.4,69.8,88,30.06,10.0,South,8.1,-,N/A,,Overcast,190,2012-10-03 18:10:00
2:30 PM,71.6,69.8,94,30.05,10.0,South,6.9,-,N/A,,Overcast,170,2012-10-03 18:30:00
2:53 PM,70.0,68.0,93,30.06,10.0,South,5.8,-,N/A,,Overcast,190,2012-10-03 18:53:00
3:53 PM,70.0,68.0,93,30.06,9.0,SSE,5.8,-,N/A,,Overcast,150,2012-10-03 19:53:00
4:53 PM,69.1,68.0,96,30.07,6.0,SSE,3.5,-,N/A,,Overcast,160,2012-10-03 20:53:00
5:23 PM,68.0,68.0,100,30.08,2.0,Calm,Calm,-,N/A,,Overcast,0,2012-10-03 21:23:00
5:31 PM,68.0,68.0,100,30.08,1.5,Calm,Calm,-,N/A,,Overcast,0,2012-10-03 21:31:00
5:53 PM,68.0,68.0,100,30.08,1.0,SE,4.6,-,N/A,,Overcast,130,2012-10-03 21:53:00
6:00 PM,68.0,68.0,100,30.08,0.8,SSE,4.6,-,N/A,,Overcast,150,2012-10-03 22:00:00
6:42 PM,66.2,66.2,100,30.08,1.0,ESE,3.5,-,N/A,,Mist,120,2012-10-03 22:42:00
6:51 PM,66.2,66.2,100,30.08,0.5,ESE,4.6,-,N/A,Fog,Fog,120,2012-10-03 22:51:00
6:53 PM,66.9,66.9,100,30.08,0.5,ESE,4.6,-,N/A,Fog,Fog,120,2012-10-03 22:53:00
7:53 PM,66.9,66.9,100,30.09,0.8,Calm,Calm,-,N/A,,Mist,0,2012-10-03 23:53:00
8:01 PM,66.2,66.2,100,30.09,1.0,Calm,Calm,-,N/A,,Mist,0,2012-10-04 00:01:00
8:50 PM,66.2,66.2,100,30.09,2.5,East,3.5,-,N/A,,Overcast,90,2012-10-04 00:50:00
8:53 PM,66.9,66.9,100,30.09,2.0,East,3.5,-,N/A,,Overcast,100,2012-10-04 00:53:00
9:07 PM,66.2,66.2,100,30.10,3.0,Calm,Calm,-,N/A,,Overcast,0,2012-10-04 01:07:00
9:53 PM,66.9,66.9,100,30.12,5.0,Calm,Calm,-,N/A,,Overcast,0,2012-10-04 01:53:00
10:40 PM,66.2,66.2,100,30.12,2.0,Calm,Calm,-,0.00,,Overcast,0,2012-10-04 02:40:00
10:53 PM,66.9,66.9,100,30.12,2.5,Calm,Calm,-,0.00,,Overcast,0,2012-10-04 02:53:00
11:01 PM,66.2,66.2,100,30.13,1.2,Calm,Calm,-,N/A,,Overcast,0,2012-10-04 03:01:00
11:18 PM,66.2,66.2,100,30.12,0.5,Calm,Calm,-,N/A,Fog,Fog,0,2012-10-04 03:18:00
11:53 PM,66.9,66.9,100,30.12,0.5,Calm,Calm,-,N/A,Fog,Fog,0,2012-10-04 03:53:00